Location: Calvera
(42.3882°N, 0.6137°E)
Time: 14:26:19
(UTC+00:00)

Cosmos 2082 Rocket - Pass Details

Date: 28 October 2020
Orbit: 833 x 854 km, 71.0° (Epoch: 24 November)

Event Time Altitude Azimuth Distance (km) Brightness Sun altitude
Exits shadow 03:52:09 10° 173° (S) 2,418 4.5 -29.0°
Maximum altitude 03:57:15 40° 106° (ESE) 1,219 3.4 -28.0°
Drops below altitude 10° 04:02:26 10° 39° (NE) 2,451 5.1 -27.1°
Sets 04:05:00 0° 32° (NNE) 3,392 5.9 -26.6°
